GW5385 Weather Reports


time (UTC)temp
C
wind
direction
speed
KPH
gust
KPH
rain 1hr
cm
rain 24hr
cm
rain mn
cm
humidity
%
barometer
mb
20260510184611 22 158 8.0 20.9 0.00 0.00 0.00 28 1017.0
20260510183043 22 203 3.2 24.1 0.00 0.00 0.00 30 1017.1
20260510181510 21 221 11.3 20.9 0.00 0.00 0.00 30 1017.4
20260510180008 21 199 8.0 24.1 0.00 0.00 0.00 31 1017.6
20260510174536 21 210 11.3 20.9 0.00 0.00 0.00 32 1017.8
20260510173032 21 227 11.3 19.3 0.00 0.00 0.00 33 1017.9
20260510171632 20 154 8.0 20.9 0.00 0.00 0.00 34 1018.1
20260510170104 20 205 6.4 17.7 0.00 0.00 0.00 35 1018.3
20260510164553 18 188 8.0 19.3 0.00 0.00 0.00 37 1018.4
20260510163020 18 184 9.7 16.1 0.00 0.00 0.00 38 1018.6
20260510161515 17 153 6.4 12.9 0.00 0.00 0.00 42 1018.7
20260510160011 16 167 4.8 12.9 0.00 0.00 0.00 46 1018.8
20260510154508 15 198 6.4 12.9 0.00 0.00 0.00 48 1019.0
20260510153006 15 129 3.2 9.7 0.00 0.00 0.00 53 1019.2
20260510151558 13 167 6.4 12.9 0.00 0.00 0.00 54 1019.2
20260510150109 12 217 6.4 9.7 0.00 0.00 0.00 59 1019.4
20260510144607 11 204 1.6 9.7 0.00 0.00 0.00 63 1019.6
20260510143042 10 253 0.0 4.8 0.00 0.00 0.00 65 1019.5
20260510141544 9 99 1.6 4.8 0.00 0.00 0.00 68 1019.6
20260510140031 8 101 0.0 3.2 0.00 0.00 0.00 73 1019.6
20260510134529 7 124 1.6 3.2 0.00 0.00 0.00 77 1019.8
20260510133030 6 292 0.0 0.0 0.00 0.00 0.00 80 1019.6
20260510131527 4 292 0.0 0.0 0.00 0.00 0.00 84 1019.7
20260510130025 2 292 0.0 1.6 0.00 0.00 0.00 85 1019.8
20260510124524 2 292 0.0 0.0 0.00 0.00 0.00 85 1019.8
20260510123024 1 292 0.0 0.0 0.00 0.00 0.00 85 1019.8
20260510121521 1 292 0.0 0.0 0.00 0.00 0.00 85 1019.9
20260510120018 1 292 0.0 1.6 0.00 0.00 0.00 85 1020.0
20260510114516 1 292 0.0 0.0 0.00 0.00 0.00 85 1020.0
20260510113020 1 295 0.0 0.0 0.00 0.00 0.00 85 1020.1
20260510111512 1 295 0.0 1.6 0.00 0.00 0.00 84 1020.1
20260510110015 2 298 0.0 1.6 0.00 0.00 0.00 85 1020.2
20260510104506 2 299 0.0 0.0 0.00 0.00 0.00 83 1020.3
20260510103003 2 293 0.0 0.0 0.00 0.00 0.00 82 1020.3
20260510101501 2 293 0.0 0.0 0.00 0.00 0.00 83 1020.3
20260510100058 2 286 0.0 0.0 0.00 0.00 0.00 84 1020.5
20260510094612 2 293 0.0 0.0 0.00 0.00 0.00 82 1020.3
20260510093053 3 282 0.0 0.0 0.00 0.00 0.00 81 1020.4
20260510091550 3 295 0.0 0.0 0.00 0.00 0.00 80 1020.3
20260510090045 4 295 0.0 0.0 0.00 0.00 0.00 78 1020.5
20260510084557 5 6 0.0 6.4 0.00 0.00 0.00 77 1020.6
20260510083053 5 353 0.0 0.0 0.00 0.00 0.00 79 1020.7
20260510081538 5 15 0.0 0.0 0.00 0.00 0.00 77 1020.7
20260510080034 6 15 0.0 0.0 0.00 0.00 0.00 74 1020.7
20260510074537 7 1 3.2 6.4 0.00 0.00 0.00 73 1020.7
20260510073045 7 352 4.8 6.4 0.00 0.00 0.00 73 1020.8
20260510071532 7 6 4.8 8.0 0.00 0.00 0.00 72 1020.9
20260510070058 7 35 6.4 8.0 0.00 0.00 0.00 74 1020.9
20260510064555 6 46 3.2 6.4 0.00 0.00 0.00 75 1020.9
20260510063053 6 33 0.0 3.2 0.00 0.00 0.00 76 1020.9
20260510061601 6 288 0.0 0.0 0.00 0.00 0.00 70 1020.9
20260510060048 7 288 0.0 0.0 0.00 0.00 0.00 75 1020.9
20260510054545 6 288 0.0 0.0 0.00 0.00 0.00 72 1020.8
20260510053049 7 234 0.0 0.0 0.00 0.00 0.00 68 1020.8
20260510051542 8 229 0.0 0.0 0.00 0.00 0.00 68 1020.8
20260510050039 8 229 0.0 1.6 0.00 0.00 0.00 68 1020.8
20260510044537 8 342 1.6 4.8 0.00 0.00 0.00 69 1020.8
20260510043033 9 283 0.0 1.6 0.00 0.00 0.00 65 1020.7
20260510041536 10 177 0.0 0.0 0.00 0.00 0.00 64 1020.6
20260510040030 10 160 1.6 6.4 0.00 0.00 0.00 65 1020.4
20260510034529 10 292 0.0 3.2 0.00 0.00 0.00 60 1020.4
20260510033026 11 124 0.0 4.8 0.00 0.00 0.00 59 1020.0
20260510031524 12 124 0.0 3.2 0.00 0.00 0.00 53 1019.8
20260510030032 12 105 3.2 4.8 0.00 0.00 0.00 50 1019.6
20260510024532 14 201 0.0 1.6 0.00 0.00 0.00 47 1019.4
20260510023022 15 211 1.6 4.8 0.00 0.00 0.00 46 1019.3
20260510021553 15 203 1.6 3.2 0.00 0.00 0.00 47 1019.3
20260510020052 16 212 0.0 3.2 0.00 0.00 0.00 45 1019.3
20260510014552 17 181 1.6 3.2 0.00 0.00 0.00 43 1019.2
20260510013101 17 224 1.6 4.8 0.00 0.00 0.00 42 1019.3
20260510011549 17 250 0.0 8.0 0.00 0.00 0.00 41 1019.3
20260510010048 18 195 3.2 9.7 0.00 0.00 0.00 40 1019.4
20260510004545 18 252 8.0 12.9 0.00 0.00 0.00 40 1019.4
20260510003049 18 228 0.0 9.7 0.00 0.00 0.00 41 1019.4
20260510001544 17 225 1.6 8.0 0.00 0.00 0.00 41 1019.4
20260510000044 17 262 3.2 12.9 0.00 0.00 0.00 40 1019.4
20260509234542 18 246 9.7 17.7 0.00 0.00 0.00 39 1019.3
20260509233041 18 261 1.6 12.9 0.00 0.00 0.00 39 1019.2
20260509231543 18 269 6.4 17.7 0.00 0.00 0.00 38 1019.2
20260509230042 18 236 6.4 12.9 0.00 0.00 0.00 38 1019.4
20260509224538 18 293 4.8 9.7 0.00 0.00 0.00 38 1019.4
20260509223036 18 235 3.2 11.3 0.00 0.00 0.00 37 1019.4
20260509221535 18 130 1.6 8.0 0.00 0.00 0.00 39 1019.6
20260509220037 17 254 3.2 9.7 0.00 0.00 0.00 38 1019.7
20260509214533 17 317 0.0 3.2 0.00 0.00 0.00 39 1019.8
20260509213030 17 103 3.2 6.4 0.00 0.00 0.00 38 1019.8
20260509211529 17 195 1.6 9.7 0.00 0.00 0.00 38 1019.8
20260509210030 17 249 0.0 4.8 0.00 0.00 0.00 38 1019.9
20260509204526 17 273 1.6 8.0 0.00 0.00 0.00 39 1020.0
20260509203027 17 283 4.8 8.0 0.00 0.00 0.00 38 1019.9
20260509201524 17 312 4.8 9.7 0.00 0.00 0.00 37 1019.7
20260509200024 17 357 1.6 9.7 0.00 0.00 0.00 37 1019.7
20260509194524 17 184 3.2 16.1 0.00 0.00 0.00 37 1019.8
20260509193021 17 260 3.2 12.9 0.00 0.00 0.00 37 1019.8
20260509191519 17 217 1.6 8.0 0.00 0.00 0.00 36 1019.9